Starlink 3115

operational
NORAD ID: 49447 Int'l Des: 2021-104 Owner: SPXS Country: US Constellation: starlink
LEOCIRCULAR

About Starlink 3115

Description loading...

Live Position

Loading 3D Globe...

Upcoming Passes

Altitude History

Altitude vs Time

uPlot chart will show altitude changes over time

Two-Line Element Set

1 49447U 21104AR 25351.88060224 .00000161 00000-0 28217-4 0 9994
2 49447 53.2163 226.3765 0001466 90.3796 269.7364 15.08837335226428
Epoch: Dec 17, 2025 • Age: 10 hours

Current Status

Altitude 540.6 km
Velocity 7.60 km/s
Sub-Earth Point 28.28°N, 175.88°W
Launch Date Nov 13, 2021
Age 4 years
Type internet

Technical Details

Classification Payload
Mass 290.00 kg
Dry Mass 270.00 kg
Total Mass 290.00 kg
Length 0.20 m
Diameter 2.80 m
Span 9.00 m
Shape Box + pan
Manufacturer SPXS
Bus Type Starlink
Phase Status In Orbit
Owner/State SPXS/US

Large Constellations

Loading constellations...